EDT,Max TemperatureF,Mean TemperatureF,Min TemperatureF,Max Dew PointF,MeanDew PointF,Min DewpointF,Max Humidity, Mean Humidity, Min Humidity, Max Sea Level PressureIn, Mean Sea Level PressureIn, Min Sea Level PressureIn, Max VisibilityMiles, Mean VisibilityMiles, Min VisibilityMiles, Max Wind SpeedMPH, Mean Wind SpeedMPH, Max Gust SpeedMPH,PrecipitationIn, CloudCover, Events, WindDirDegrees
2014-3-1,80,68,57,61,57,54,93,65,45,30.17,30.12,30.06,10,10,10,15,7,20,0.00,0,,17
2014-3-2,80,75,70,63,59,57,71,59,48,30.20,30.14,30.09,10,10,10,13,9,16,0.01,1,,96
2014-3-3,81,72,64,63,61,58,87,62,48,30.10,30.05,30.00,10,10,10,14,8,22,0.00,0,,164
2014-3-4,79,72,64,65,63,60,90,71,58,30.08,30.03,29.99,10,10,10,13,5,17,0.00,0,,78
2014-3-5,82,78,73,69,66,63,85,70,58,30.05,30.00,29.95,10,10,10,16,7,20,0.00,3,,171
2014-3-6,84,75,66,71,67,63,94,81,58,30.00,29.89,29.82,10,8,0,33,8,53,0.38,3,Fog-Rain,214
2014-3-7,82,72,60,68,60,50,90,70,33,30.04,29.87,29.80,10,10,8,24,10,33,0.00,3,Rain,264
2014-3-8,73,64,55,59,53,48,87,68,51,30.15,30.09,30.03,10,10,10,13,7,,0.00,3,,360
2014-3-9,79,70,61,63,60,57,90,70,52,30.18,30.13,30.10,10,10,10,12,4,16,0.00,1,,57
2014-3-10,81,72,64,63,60,57,84,65,47,30.13,30.07,29.99,10,10,10,14,6,,0.00,1,Rain,229
2014-3-11,81,72,63,66,62,58,84,69,54,30.03,29.95,29.88,10,10,10,17,7,20,0.00,1,,182
2014-3-12,88,80,72,69,65,61,84,65,43,29.91,29.85,29.78,10,10,10,20,9,28,0.00,3,,225
2014-3-13,75,68,62,67,56,42,79,63,45,30.17,30.00,29.86,10,10,10,24,13,29,0.00,3,,337
2014-3-14,75,66,60,55,50,44,62,53,46,30.27,30.20,30.16,10,10,10,17,11,24,0.00,4,,55
2014-3-15,80,72,64,59,55,51,78,54,40,30.16,30.11,30.07,10,10,10,14,9,,0.00,1,,124
2014-3-16,82,77,73,66,62,58,73,62,52,30.06,29.95,29.85,10,10,10,20,14,29,0.00,1,,149
2014-3-17,86,80,75,73,70,66,84,74,61,29.86,29.80,29.76,10,10,8,22,13,30,0.00,2,,173
2014-3-18,80,74,68,72,63,55,93,72,48,30.03,29.88,29.73,10,9,1,24,14,32,0.45,4,Rain,287
2014-3-19,80,73,66,64,62,59,87,74,54,30.08,30.04,29.99,10,10,10,4,1,,0.00,5,,12
2014-3-20,80,76,71,68,67,60,87,72,64,30.07,30.01,29.97,10,10,10,17,12,,0.00,3,,136
2014-3-21,82,72,63,69,65,60,97,80,65,30.07,30.03,29.98,10,7,0,18,6,,0.00,2,Fog,166
2014-3-22,80,76,73,73,68,58,91,77,54,30.10,30.06,30.00,10,9,1,17,13,25,0.18,3,Rain,164
2014-3-23,90,80,70,71,64,59,84,62,40,30.07,30.02,29.95,10,10,9,17,7,21,0.00,2,,254
2014-3-24,77,70,66,69,66,63,93,82,69,30.06,29.99,29.92,10,9,4,15,9,,0.12,4,Rain,344
2014-3-25,84,74,64,69,64,51,96,80,58,30.03,29.92,29.84,10,9,2,17,9,28,0.36,4,Rain-Thunderstorm,259
2014-3-26,69,62,55,53,47,37,72,57,43,30.26,30.18,30.03,10,10,10,22,13,28,0.00,1,,351
2014-3-27,78,72,66,62,55,49,71,56,47,30.31,30.24,30.19,10,10,10,24,14,32,0.00,3,,101
2014-3-28,82,78,73,69,64,59,76,65,54,30.20,30.13,30.07,10,10,9,22,18,29,0.00,2,,128
2014-3-29,82,76,70,73,71,65,88,79,67,30.09,30.01,29.94,10,9,3,24,14,36,0.19,4,Rain-Thunderstorm,187
2014-3-30,81,72,64,67,57,39,90,65,26,30.08,29.99,29.92,10,10,3,20,8,26,0.00,3,Thunderstorm,292
2014-3-31,79,68,59,62,56,49,73,63,48,30.15,30.11,30.06,10,10,10,14,8,,0.00,0,,15